C/2017 E2 ( XuYi )

Japanese version
Home page
Updated on March 25, 2017

---------------------------------------------------------------------

* Profile

Discovery Date March 1, 2017
Magnitude 19.7 mag
Discoverer H. B. Zhao, B. Li, G. Zhaori, R. Q. Hong, L. F. Hu (XuYi Station, Purple Mountain Observatory)

* Pictures

* Orbital Elements

T 2016 July 18.17770 TT                                 MPCW
q   1.5247480            (2000.0)            P               Q
                   Peri.   72.83570     +0.15677973     -0.96285363
                   Node    14.93070     +0.18714874     -0.18960429
e   1.0            Incl.   58.57006     +0.96973989     +0.19225789
From 45 observations 2017 Mar. 1-5.

* Magnitudes Graph

        m1 = 12.0 + 5 log d + 10.0 log r

---------------------------------------------------------------------

The orbital elements are published on M.P.E.C. 2017-E59.
The magnitudes graphs are made with Comet for Windows.

---------------------------------------------------------------------

Copyright(C) Seiichi Yoshida (comet@aerith.net). All rights reserved.